Location: Beneden-Haastrecht
(52.0012°N, 4.7557°E)
Time: 03:11:09
(UTC+00:00)

Okean-O - Pass Details

Date: 24 October 2020
Orbit: 638 x 641 km, 98.2° (Epoch: 24 November)

Event Time Altitude Azimuth Distance (km) Brightness Sun altitude
Rises 17:39:48 0° 154° (SSE) 2,937 5.8 -11.8°
Reaches altitude 10° 17:42:00 10° 151° (SSE) 2,032 5.0 -12.1°
Maximum altitude 17:46:23 63° 71° (ENE) 719 2.6 -12.8°
Drops below altitude 10° 17:50:47 10° 351° (N) 2,047 5.3 -13.4°
Sets 17:53:01 0° 348° (NNW) 2,961 6.2 -13.8°
